Regional Weather Roundup
Issued by NWS Goodland, KS

Home | Current Version | Previous Version | Text Only | Print | Product List | Glossary Off
Versions: 1 2 3 4 5 6 7 8 9 10 11 12 13 14 15 16 17 18 19 20 21 22 23 24 25 26 27 28 29 30 31 32 33 34 35 36 37 38 39 40 41 42 43 44 45 46 47 48 49 50

770
ASUS43 KGLD 271408
RWRGLD

GOODLAND FORECAST AREA HOURLY WEATHER ROUNDUP
NATIONAL WEATHER SERVICE GOODLAND KS
800 AM MDT FRI MAY 27 2016

...OFFICIAL OBSERVATIONS...

CITY           SKY/WX    TMP DP  RH WIND       PRES   REMARKS
GOODLAND KS    MOSUNNY   53  51  93 E10       29.73S
HILL CITY KS   CLOUDY    58  56  93 NE6       29.75R
IMPERIAL NEB   CLOUDY    55  53  93 N9        29.77F
MCCOOK NEB     CLOUDY    59  54  83 E3        29.75R
AKRON CO       LGT RAIN  48  47  96 N17       29.79S FOG
BURLINGTON CO  PTSUNNY   54  48  80 N7        29.74R
LIMON CO       LGT RAIN  46  44  93 N23G33    29.79R
$$

...UNOFFICIAL OBSERVATIONS...

CITY           SKY/WX    TMP DP  RH WIND       PRES   REMARKS
GOVE KS          N/A     57  32  39 MISG        N/A
LENORA KS        N/A     56  32  40 MISG        N/A
SHARON SPRINGS   N/A     55  52  91 NE10        N/A
KIT CARSON CO    N/A     54  46  75 MISG        N/A
YUMA CO          N/A     52  51  95 NE6         N/A
$$




USA.gov is the U.S. government's official web portal to all federal, state and local government web resources and services.